Погода в Камышино-Курском

Россия / Омская область     55°57′56″N   74°51′00″E
темп.,
°C
ветер,
м/с
пор.,
м/с
влажн.,
%
обл.,
%
осадки,
мм/ч
давл.,
гПа
погр.,
м
14 апреля, ср
ср1400:000зюз4119775 0.0 1036189
03:00+1зюз4119510 0.0 1034191
06:00+1юз51294100 0.0 1032219
09:00+1зюз714100100 0.0 1031338
12:00+2зюз716100100 0.0 1028435
15:00+3зюз615100100 0.0 1027470
18:00+4зюз511100100 0.1 1027236
21:00+3зюз37100100 0.1 1027107
15 апреля, чт
чт1500:00+2зюз11100100 0.1 102728
03:00+2юз11100100 0.1 102716
06:00+2ю24100100 0.1 102658
09:00+4юз39100100 0.0 1025218
12:00+9зюз599769 0.0 1024349
15:00+13з510855 0.0 1022743
18:00+12з48825 0.0 1021227
21:00+9юз412925 0.0 1020186
16 апреля, пт
пт1600:00+8зюз5129234 0.0 1018237
03:00+7юз5129212 0.0 1016209
06:00+6юз5129023 0.0 1015208
09:00+9зюз6138174 0.0 1014385
12:00+12сз6878100 0.0 1015888
15:00+5с61090100 0.1 1019699
18:00+6ссв587396 0.2 10211207
21:00+3ссв61170100 0.0 1023587
17 апреля, сб
сб1700:000св597436 0.0 1024649
03:00−2св47725 0.0 1025637
06:00−3всв45685 0.0 1024617
09:00−1юв33533 0.0 1023751
12:00+2юз334353 0.0 10201208
15:00+4з574236 0.0 10181735
18:00+5з5105122 0.0 10151795
21:00+2зсз81391100 0.2 1014855
18 апреля, вс
вс1800:00+1сз5117288 0.3 1015480
03:00−2ссз4880100 0.0 1016502
06:00−3с3573100 0.0 1016384
09:00−1всв1147100 0.0 1016502
12:00+2юв3438100 0.0 10131145
15:000всв4685100 1.6 1011610
18:00−2ссв71078100 3.6 1013891
21:00−2ссв61162100 0.1 1014502